CW3917 Weather Reports


time (UTC)temp
F
wind
direction
speed
knots
gust
knots
rain 1hr
in
rain 24hr
in
rain mn
in
humidity
%
barometer
mb
20260507110109 55 23 0.9 1.7 0.00 0.00 0.00 86 1015.0
20260507105606 55 68 0.9 2.6 0.00 0.00 0.00 86 1014.9
20260507105101 55 356 0.0 0.9 0.00 0.00 0.00 85 1015.1
20260507104559 55 15 0.9 1.7 0.00 0.00 0.00 86 1015.0
20260507104056 55 53 0.9 1.7 0.00 0.00 0.00 85 1015.0
20260507103552 55 13 0.0 0.0 0.00 0.00 0.00 86 1015.2
20260507103049 55 7 0.0 0.9 0.00 0.00 0.00 86 1015.3
20260507102545 55 1 0.0 0.0 0.00 0.00 0.00 86 1015.2
20260507102041 55 18 0.0 0.0 0.00 0.00 0.00 86 1015.3
20260507101537 55 343 0.0 0.9 0.00 0.00 0.00 86 1015.0
20260507101033 55 14 0.0 1.7 0.00 0.00 0.00 87 1015.2
20260507100531 54 12 0.0 0.9 0.00 0.00 0.00 86 1015.3
20260507100029 53 19 0.9 1.7 0.00 0.00 0.00 87 1015.3
20260507095526 53 331 0.0 0.9 0.00 0.00 0.00 86 1015.3
20260507095023 53 331 0.9 0.9 0.00 0.00 0.00 86 1015.3
20260507094519 53 23 0.9 0.9 0.00 0.00 0.00 87 1015.3
20260507094016 52 358 0.0 0.9 0.00 0.00 0.00 88 1015.4
20260507093513 52 8 0.0 0.9 0.00 0.00 0.00 88 1015.5
20260507093012 53 351 0.0 0.0 0.00 0.00 0.00 88 1015.7
20260507092508 53 342 0.0 0.0 0.00 0.00 0.00 89 1015.7
20260507092005 51 345 0.0 0.0 0.00 0.00 0.00 88 1015.8
20260507091502 53 1 0.0 0.0 0.00 0.00 0.00 87 1015.9
20260507090957 53 354 0.0 0.0 0.00 0.00 0.00 87 1015.8
20260507090453 53 359 0.0 0.0 0.00 0.00 0.00 87 1015.8
20260507085950 53 357 0.0 0.0 0.00 0.00 0.00 87 1015.9
20260507085447 53 357 0.0 0.0 0.00 0.00 0.00 87 1016.0
20260507084944 53 354 0.0 0.0 0.00 0.00 0.00 87 1015.9
20260507084441 54 352 0.0 0.0 0.00 0.00 0.00 88 1016.2
20260507083938 53 346 0.0 0.0 0.00 0.00 0.00 88 1016.1
20260507083434 53 339 0.0 0.0 0.00 0.00 0.00 89 1016.0
20260507082931 53 345 0.0 0.0 0.00 0.00 0.00 89 1016.2
20260507082427 53 351 0.0 0.0 0.00 0.00 0.00 89 1016.1
20260507081924 54 346 0.0 0.0 0.00 0.00 0.00 87 1016.3
20260507081420 54 344 0.0 0.9 0.00 0.00 0.00 88 1016.2
20260507080917 54 345 0.0 0.0 0.00 0.00 0.00 88 1016.1
20260507080413 54 357 0.0 0.0 0.00 0.00 0.00 88 1016.2
20260507075908 54 351 0.0 0.9 0.00 0.00 0.00 88 1016.5
20260507075404 54 6 0.0 0.9 0.00 0.00 0.00 88 1016.2
20260507074901 54 356 0.0 0.0 0.00 0.00 0.00 88 1016.2
20260507074358 54 309 0.0 0.9 0.00 0.00 0.00 87 1016.2
20260507073855 54 356 0.0 0.0 0.00 0.00 0.00 86 1016.3
20260507073352 55 358 0.0 0.0 0.00 0.00 0.00 84 1016.3
20260507072849 55 340 0.0 0.0 0.00 0.00 0.00 84 1016.5
20260507072346 55 310 0.0 0.9 0.00 0.00 0.00 86 1016.3
20260507071844 54 353 0.0 0.9 0.00 0.00 0.00 86 1016.2
20260507071341 54 17 0.9 0.9 0.00 0.00 0.00 86 1016.3
20260507070837 54 356 0.0 0.9 0.00 0.00 0.00 86 1016.5
20260507070335 54 19 0.0 0.9 0.00 0.00 0.00 86 1016.6
20260507065831 54 357 0.0 0.0 0.00 0.00 0.00 86 1016.4
20260507065328 54 344 0.0 0.0 0.00 0.00 0.00 86 1016.3
20260507064825 54 342 0.0 0.0 0.00 0.00 0.00 86 1016.5
20260507064324 55 9 0.9 0.9 0.00 0.00 0.00 85 1016.5
20260507063821 55 343 0.0 0.0 0.00 0.00 0.00 85 1016.6
20260507063318 55 337 0.0 0.0 0.00 0.00 0.00 85 1016.6
20260507062815 55 1 0.0 0.9 0.00 0.00 0.00 83 1016.8
20260507062312 56 334 0.0 0.9 0.00 0.00 0.00 83 1016.7
20260507061810 55 330 0.0 0.9 0.00 0.00 0.00 83 1016.6
20260507061307 56 357 0.0 0.0 0.00 0.00 0.00 82 1016.6
20260507060805 56 327 0.0 0.0 0.00 0.00 0.00 82 1016.6
20260507060302 56 352 0.0 0.0 0.00 0.00 0.00 82 1016.6
20260507055758 56 349 0.0 0.0 0.00 0.00 0.00 81 1016.6
20260507055254 57 351 0.0 0.0 0.00 0.00 0.00 80 1016.6
20260507054750 57 356 0.0 0.0 0.00 0.00 0.00 79 1016.6
20260507054247 58 346 0.0 0.0 0.00 0.00 0.00 78 1016.6
20260507053744 58 334 0.0 0.0 0.00 0.00 0.00 78 1016.7
20260507053242 58 334 0.0 0.0 0.00 0.00 0.00 78 1016.7
20260507052741 58 342 0.0 0.0 0.00 0.00 0.00 77 1016.5
20260507052236 59 240 1.7 1.7 0.00 0.00 0.00 76 1016.4
20260507051735 59 351 0.0 0.0 0.00 0.00 0.00 75 1016.5
20260507051231 59 288 1.7 1.7 0.00 0.00 0.00 75 1016.6
20260507050728 59 213 0.9 1.7 0.00 0.00 0.00 75 1016.4
20260507050225 59 237 1.7 1.7 0.00 0.00 0.00 75 1016.4
20260507045722 59 245 1.7 1.7 0.00 0.00 0.00 74 1016.2
20260507045218 60 186 1.7 1.7 0.00 0.00 0.00 74 1016.2
20260507044715 60 239 1.7 3.5 0.00 0.00 0.00 73 1016.4
20260507044212 60 224 2.6 3.5 0.00 0.00 0.00 73 1016.4
20260507043708 60 268 0.9 2.6 0.00 0.00 0.00 73 1016.3
20260507043205 60 235 2.6 2.6 0.00 0.00 0.00 73 1016.5
20260507042701 60 224 1.7 3.5 0.00 0.00 0.00 73 1016.4
20260507042156 60 255 1.7 3.5 0.00 0.00 0.00 73 1016.3
20260507041654 61 248 0.9 2.6 0.00 0.00 0.00 73 1016.4
20260507041150 61 5 0.9 2.6 0.00 0.00 0.00 72 1016.3
20260507040647 61 324 0.9 2.6 0.00 0.00 0.00 72 1016.3
20260507040143 61 196 1.7 2.6 0.00 0.00 0.00 72 1016.4
20260507035639 61 285 1.7 2.6 0.00 0.00 0.00 71 1016.1
20260507035135 62 2 0.9 3.5 0.00 0.00 0.00 70 1016.1
20260507034633 62 226 1.7 2.6 0.00 0.00 0.00 69 1016.0
20260507034130 62 184 2.6 3.5 0.00 0.00 0.00 69 1016.0
20260507033628 62 189 2.6 2.6 0.00 0.00 0.00 68 1015.8
20260507033125 62 233 0.9 2.6 0.00 0.00 0.00 68 1015.8
20260507032623 62 340 0.0 1.7 0.00 0.00 0.00 68 1015.9
20260507032118 63 230 2.6 6.1 0.00 0.00 0.00 67 1015.9
20260507031615 63 204 3.5 5.2 0.00 0.00 0.00 68 1015.9
20260507031112 63 220 1.7 2.6 0.00 0.00 0.00 71 1015.6
20260507030609 63 321 0.9 1.7 0.00 0.00 0.00 69 1015.8
20260507030107 63 345 0.0 0.9 0.00 0.00 0.00 68 1015.6
20260507025603 64 181 0.9 2.6 0.00 0.00 0.00 68 1015.7
20260507025100 64 168 0.0 2.6 0.00 0.00 0.00 67 1015.7
20260507024559 64 316 0.9 2.6 0.00 0.00 0.00 67 1015.6
20260507024055 64 10 0.0 2.6 0.00 0.00 0.00 66 1015.6
20260507023551 64 213 2.6 2.6 0.00 0.00 0.00 66 1015.4
20260507023048 64 287 0.9 3.5 0.00 0.00 0.00 66 1015.4
20260507022545 65 191 2.6 2.6 0.00 0.00 0.00 65 1015.0
20260507022040 65 3 0.0 2.6 0.00 0.00 0.00 65 1015.4
20260507021537 65 342 0.9 2.6 0.00 0.00 0.00 64 1015.3
20260507021033 66 130 1.7 3.5 0.00 0.00 0.00 64 1015.2
20260507020531 66 14 1.7 5.2 0.00 0.00 0.00 63 1015.1
20260507020027 66 19 1.7 3.5 0.00 0.00 0.00 62 1015.1
20260507015526 67 52 0.9 2.6 0.00 0.00 0.00 61 1015.2
20260507015023 67 352 0.0 5.2 0.00 0.00 0.00 61 1015.1
20260507014519 68 161 2.6 5.2 0.00 0.00 0.00 61 1015.1
20260507014015 68 22 0.9 2.6 0.00 0.00 0.00 60 1015.0
20260507013512 69 252 2.6 6.1 0.00 0.00 0.00 59 1015.0
20260507013009 69 183 3.5 3.5 0.00 0.00 0.00 58 1015.1
20260507012506 69 232 0.9 5.2 0.00 0.00 0.00 57 1015.0
20260507012003 70 337 0.9 6.1 0.00 0.00 0.00 56 1014.9
20260507011500 71 247 1.7 3.5 0.00 0.00 0.00 55 1014.9
20260507010955 71 346 1.7 7.0 0.00 0.00 0.00 54 1014.7
20260507010450 72 12 3.5 7.0 0.00 0.00 0.00 54 1014.7
20260507005947 72 9 2.6 5.2 0.00 0.00 0.00 52 1014.7
20260507005445 72 20 0.9 7.0 0.00 0.00 0.00 53 1014.7
20260507004941 71 150 3.5 3.5 0.00 0.00 0.00 52 1014.7
20260507004437 73 203 5.2 7.8 0.00 0.00 0.00 53 1014.7
20260507003935 72 22 1.7 7.0 0.00 0.00 0.00 51 1014.8
20260507003430 71 188 5.2 7.8 0.00 0.00 0.00 52 1014.8
20260507002926 72 201 3.5 11.3 0.00 0.00 0.00 51 1014.7
20260507002422 72 188 0.9 7.0 0.00 0.00 0.00 51 1014.7
20260507001919 72 307 3.5 6.1 0.00 0.00 0.00 50 1014.7
20260507001416 72 195 4.3 9.6 0.00 0.00 0.00 52 1014.8
20260507000914 73 144 2.6 7.0 0.00 0.00 0.00 50 1014.7
20260507000408 73 187 0.9 5.2 0.00 0.00 0.00 51 1014.7
20260506235905 73 206 4.3 6.1 0.00 0.00 0.00 50 1014.6
20260506235402 73 192 7.0 7.8 0.00 0.00 0.00 50 1014.7
20260506234857 72 109 1.7 6.1 0.00 0.00 0.00 52 1014.7
20260506234355 74 223 3.5 8.7 0.00 0.00 0.00 50 1014.5
20260506233853 73 151 1.7 7.8 0.00 0.00 0.00 51 1014.8
20260506233349 74 211 5.2 6.1 0.00 0.00 0.00 49 1014.8
20260506232846 74 99 0.9 7.0 0.00 0.00 0.00 49 1014.6
20260506232342 73 83 2.6 3.5 0.00 0.00 0.00 48 1014.9
20260506231838 74 213 1.7 8.7 0.00 0.00 0.00 48 1014.8
20260506231336 75 199 3.5 6.1 0.00 0.00 0.00 46 1014.7
20260506230833 75 18 1.7 8.7 0.00 0.00 0.00 48 1014.6
20260506230330 74 100 1.7 6.1 0.00 0.00 0.00 47 1014.7
20260506225826 75 180 3.5 5.2 0.00 0.00 0.00 45 1014.8
20260506225323 75 111 2.6 7.8 0.00 0.00 0.00 45 1014.8
20260506224820 75 198 3.5 7.8 0.00 0.00 0.00 45 1014.7
20260506224318 75 218 3.5 7.8 0.00 0.00 0.00 47 1014.9
20260506223814 76 193 1.7 6.1 0.00 0.00 0.00 45 1015.1
20260506223309 74 159 0.9 2.6 0.00 0.00 0.00 48 1015.1
20260506222806 75 222 1.7 2.6 0.00 0.00 0.00 47 1014.9
20260506222305 76 205 2.6 6.1 0.00 0.00 0.00 46 1015.0
20260506221800 74 193 4.3 7.8 0.00 0.00 0.00 47 1015.1
20260506221258 74 221 5.2 7.8 0.00 0.00 0.00 48 1015.2
20260506220755 75 273 1.7 7.8 0.00 0.00 0.00 47 1015.3
20260506220255 74 243 3.5 7.0 0.00 0.00 0.00 49 1015.4
20260506215752 75 253 0.9 2.6 0.00 0.00 0.00 48 1015.3
20260506215248 75 349 1.7 6.1 0.00 0.00 0.00 49 1015.3
20260506214744 74 231 2.6 7.0 0.00 0.00 0.00 48 1015.5
20260506214242 75 229 3.5 7.8 0.00 0.00 0.00 49 1015.5
20260506213740 74 192 7.0 8.7 0.00 0.00 0.00 48 1015.5
20260506213237 74 195 2.6 6.1 0.00 0.00 0.00 48 1015.6
20260506212734 75 70 1.7 7.8 0.00 0.00 0.00 48 1015.4
20260506212230 75 216 2.6 6.1 0.00 0.00 0.00 48 1015.6
20260506211725 74 160 3.5 5.2 0.00 0.00 0.00 49 1015.7
20260506211222 74 355 0.9 8.7 0.00 0.00 0.00 51 1015.8
20260506210719 74 349 2.6 5.2 0.00 0.00 0.00 50 1015.9
20260506210216 74 16 3.5 6.1 0.00 0.00 0.00 49 1015.7
20260506205713 74 190 5.2 7.0 0.00 0.00 0.00 49 1015.7
20260506205208 73 214 3.5 8.7 0.00 0.00 0.00 49 1015.8
20260506204705 73 339 1.7 7.0 0.00 0.00 0.00 50 1016.1
20260506204202 73 131 3.5 9.6 0.00 0.00 0.00 49 1015.9
20260506203700 72 235 0.9 5.2 0.00 0.00 0.00 47 1016.0
20260506203157 72 276 2.6 7.0 0.00 0.00 0.00 48 1016.0
20260506202655 72 358 1.7 7.0 0.00 0.00 0.00 47 1016.3
20260506202150 73 331 0.9 1.7 0.00 0.00 0.00 47 1016.3
20260506201648 72 58 0.9 5.2 0.00 0.00 0.00 48 1016.2
20260506201144 71 244 1.7 7.0 0.00 0.00 0.00 48 1016.4
20260506200641 70 63 1.7 7.8 0.00 0.00 0.00 49 1016.5
20260506200138 69 230 1.7 3.5 0.00 0.00 0.00 50 1016.6
20260506195635 70 232 0.9 7.0 0.00 0.00 0.00 49 1016.5
20260506195131 70 250 1.7 2.6 0.00 0.00 0.00 49 1016.7
20260506194629 71 300 1.7 6.1 0.00 0.00 0.00 49 1016.8
20260506194124 71 208 4.3 7.0 0.00 0.00 0.00 48 1016.8
20260506193623 71 325 0.9 7.0 0.00 0.00 0.00 48 1016.7
20260506193120 70 126 2.6 6.1 0.00 0.00 0.00 50 1016.7
20260506192616 70 352 1.7 6.1 0.00 0.00 0.00 50 1016.9
20260506192112 69 274 0.9 3.5 0.00 0.00 0.00 51 1016.8
20260506191609 70 144 1.7 7.8 0.00 0.00 0.00 50 1016.8
20260506191105 70 10 0.9 5.2 0.00 0.00 0.00 51 1017.0
20260506190603 70 44 3.5 7.0 0.00 0.00 0.00 51 1017.1
20260506190059 69 231 0.9 1.7 0.00 0.00 0.00 51 1017.4
20260506185556 69 75 0.9 1.7 0.00 0.00 0.00 50 1017.1
20260506185053 69 39 1.7 2.6 0.00 0.00 0.00 53 1017.3
20260506184550 69 38 0.9 1.7 0.00 0.00 0.00 52 1017.4
20260506184047 66 149 1.7 2.6 0.00 0.00 0.00 55 1017.4
20260506183543 67 234 3.5 6.1 0.00 0.00 0.00 55 1017.5
20260506183040 68 258 1.7 1.7 0.00 0.00 0.00 52 1017.6
20260506182537 67 57 0.9 3.5 0.00 0.00 0.00 54 1017.5
20260506182035 67 94 1.7 3.5 0.00 0.00 0.00 55 1017.4
20260506181533 68 158 0.9 3.5 0.00 0.00 0.00 52 1017.7
20260506181029 68 11 0.9 3.5 0.00 0.00 0.00 54 1017.4
20260506180525 68 202 1.7 2.6 0.00 0.00 0.00 54 1017.5
20260506180022 66 213 0.9 2.6 0.00 0.00 0.00 55 1017.5
20260506175519 66 222 2.6 3.5 0.00 0.00 0.00 55 1017.5
20260506175015 65 148 4.3 5.2 0.00 0.00 0.00 56 1017.5
20260506174514 64 328 0.9 3.5 0.00 0.00 0.00 59 1017.5
20260506174009 66 178 1.7 3.5 0.00 0.00 0.00 56 1017.7
20260506173508 66 71 0.0 1.7 0.00 0.00 0.00 56 1017.5
20260506173004 65 68 0.0 2.6 0.00 0.00 0.00 57 1017.5
20260506172502 64 230 2.6 2.6 0.00 0.00 0.00 58 1017.5
20260506171957 65 251 2.6 5.2 0.00 0.00 0.00 58 1017.5
20260506171455 65 38 0.9 3.5 0.00 0.00 0.00 57 1017.3
20260506170953 64 180 1.7 2.6 0.00 0.00 0.00 57 1017.6
20260506170449 64 239 0.9 1.7 0.00 0.00 0.00 59 1017.5
20260506165948 64 97 1.7 1.7 0.00 0.00 0.00 60 1017.6
20260506165446 64 264 0.9 3.5 0.00 0.00 0.00 59 1017.5
20260506164942 63 52 0.9 2.6 0.00 0.00 0.00 59 1017.5
20260506164439 64 93 0.9 3.5 0.00 0.00 0.00 60 1017.4
20260506163936 62 21 0.9 2.6 0.00 0.00 0.00 62 1017.6
20260506163431 62 243 0.9 1.7 0.00 0.00 0.00 64 1017.4
20260506162926 62 122 0.9 1.7 0.00 0.00 0.00 61 1017.5
20260506162424 63 14 0.0 0.9 0.00 0.00 0.00 61 1017.7
20260506161922 64 7 1.7 3.5 0.00 0.00 0.00 61 1017.7
20260506161420 63 16 0.9 1.7 0.00 0.00 0.00 62 1017.4
20260506160917 63 346 0.0 0.9 0.00 0.00 0.00 62 1017.6
20260506160414 62 195 0.9 2.6 0.00 0.00 0.00 64 1017.6
20260506155912 62 224 0.9 1.7 0.00 0.00 0.00 63 1017.4
20260506155409 62 359 0.0 1.7 0.00 0.00 0.00 64 1017.5
20260506153530 60 12 0.9 1.7 0.00 0.00 0.00 68 1017.5
20260506153028 60 121 0.9 0.9 0.00 0.00 0.00 70 1017.8
20260506152525 60 290 0.9 1.7 0.00 0.00 0.00 70 1017.7
20260506152023 60 356 0.0 1.7 0.00 0.00 0.00 72 1017.5
20260506151520 61 330 0.0 1.7 0.00 0.00 0.00 70 1017.6
20260506151018 61 8 0.0 0.9 0.00 0.00 0.00 72 1017.5
20260506150513 61 356 0.0 0.9 0.00 0.00 0.00 68 1017.6
20260506150011 61 30 0.9 0.9 0.00 0.00 0.00 69 1017.5
20260506145507 59 17 0.0 0.9 0.00 0.00 0.00 73 1017.5
20260506145005 58 7 0.0 0.9 0.00 0.00 0.00 79 1017.5
20260506144501 56 43 1.7 2.6 0.00 0.00 0.00 85 1017.4
20260506143959 56 43 1.7 2.6 0.00 0.00 0.00 85 1017.4
20260506143456 56 27 1.7 1.7 0.00 0.00 0.00 87 1017.4
20260506142955 55 48 1.7 2.6 0.00 0.00 0.00 86 1017.4
20260506142452 55 24 0.9 1.7 0.00 0.00 0.00 86 1017.3
20260506141949 55 40 0.9 0.9 0.00 0.00 0.00 85 1017.4
20260506141447 55 33 0.9 0.9 0.00 0.00 0.00 86 1017.1
20260506140946 54 359 0.0 0.0 0.00 0.00 0.00 93 1017.1
20260506140442 54 30 0.9 0.9 0.00 0.00 0.00 93 1017.1
20260506135939 52 357 0.0 0.0 0.00 0.00 0.00 96 1017.3
20260506135437 52 318 0.0 0.0 0.00 0.00 0.00 96 1017.3
20260506134932 52 351 0.0 0.0 0.00 0.00 0.00 97 1017.4
20260506134429 51 350 0.0 0.0 0.00 0.00 0.00 97 1017.1
20260506133926 51 0 0.0 0.0 0.00 0.00 0.00 97 1017.3
20260506133423 50 358 0.0 0.9 0.00 0.00 0.00 97 1017.0
20260506132919 50 1 0.0 0.9 0.00 0.00 0.00 97 1016.9
20260506132416 49 354 0.0 0.9 0.00 0.00 0.00 97 1017.0
20260506131914 49 21 0.9 0.9 0.00 0.00 0.00 97 1016.9
20260506131410 49 333 0.0 0.0 0.00 0.00 0.00 97 1016.8
20260506130907 49 36 0.0 0.9 0.00 0.00 0.00 97 1016.7
20260506130403 49 46 0.0 0.9 0.00 0.00 0.00 97 1016.7
20260506125902 49 24 0.9 0.9 0.00 0.00 0.00 97 1016.6
20260506125400 49 11 0.0 0.9 0.00 0.00 0.00 97 1016.5
20260506124858 49 7 0.0 0.9 0.00 0.00 0.00 97 1016.7
20260506124354 49 12 0.0 0.9 0.00 0.00 0.00 97 1016.5
20260506123853 49 346 0.0 0.0 0.00 0.00 0.00 97 1016.6
20260506123351 49 7 0.0 0.9 0.00 0.00 0.00 97 1016.6
20260506122848 49 17 0.0 0.9 0.00 0.00 0.00 97 1016.3
20260506122344 50 22 0.9 0.9 0.00 0.00 0.00 97 1016.4
20260506121843 49 19 0.0 0.9 0.00 0.00 0.00 97 1016.3
20260506121339 50 349 0.0 0.0 0.00 0.00 0.00 97 1016.4
20260506120836 50 353 0.0 0.0 0.00 0.00 0.00 97 1016.1
20260506120334 50 353 0.0 0.0 0.00 0.00 0.00 97 1016.3
20260506115831 50 346 0.0 0.0 0.00 0.00 0.00 97 1016.3
20260506115329 50 350 0.0 0.0 0.00 0.00 0.00 97 1016.2
20260506114827 50 351 0.0 0.0 0.00 0.00 0.00 97 1016.4
20260506114325 50 359 0.0 0.0 0.00 0.00 0.00 97 1016.4
20260506113823 49 358 0.0 0.0 0.00 0.00 0.00 97 1016.3
20260506113320 49 352 0.0 0.0 0.00 0.00 0.00 97 1016.4
20260506112817 50 354 0.0 0.0 0.00 0.00 0.00 97 1016.4
20260506112314 50 351 0.0 0.0 0.00 0.00 0.00 97 1016.0
20260506111811 49 350 0.0 0.0 0.00 0.00 0.00 97 1016.1
20260506111309 50 0 0.0 0.0 0.00 0.00 0.00 97 1016.0
20260506110807 50 358 0.0 0.0 0.00 0.00 0.00 97 1016.1